sat.trackr.live / text

‹ back to catalog

YAOGAN-36 03A

NORAD 54372 · 2022-160A

PAYLOAD ACTIVE UNKNOWN

§ Identity

Operator
Country
PRC
Launch date
2022-11-27
Launch site
XICLF
Launch vehicle
Mass (kg)
RCS (m²)

External: N2YO · Heavens-Above · Gunter

§ Orbital elements

Epoch: 2026-05-25T05:14:05.248320Z

Period
93.89 min
Inclination
34.9996°
Eccentricity
0.0000496
Mean motion
15.33762050 rev/d
Perigee alt
464.3 km
Apogee alt
464.9 km
Semi-major
6,842.7 km
B*
4.0224e-4
RAAN
109.9483°
Arg perigee
96.3033°
Mean anomaly
263.7741°
Rev number
19,468

§ Raw data

YAOGAN-36 03A1 54372U 22160A   26145.21811630  .00013467  00000+0  40224-3 0  99972 54372  34.9996 109.9483 0000496  96.3033 263.7741 15.33762050194680

JSON: /api/v1/satellites/54372 · /tle

For live sub-satellite position, see the globe view (requires WebGL).

§ Visibility from observer

Set your observer location to see the next 7 days of passes ≥ 10°. The values pass through the URL so the page stays shareable.

No JS? Fill the form by hand. The geolocation button needs JavaScript.